Flag for Jamaica Weather past 2 weeks in May Pen, Jamaica

Now
86 °F

Passing clouds.


Feels Like: 92 °F
Forecast: 74 / 92 °F
Wind: 17 mph from Southeast

Location: Kingston / Norman Manley

Current Time: Jul 27, 2015 at 8:56:47 PM

Latest Report: Jul 27, 2015 at 8:00 PM


Visibility: N/A

Pressure: 29.92 "Hg

Humidity: 62%

Dew point: 72 °F

Location of May PenLocation

Historic Weather in May Pen — Graph

°F

May Pen temperature yesterday

Maximum temperature yesterday: 90 °F (at 11:00 AM)
Minimum temperature yesterday: 81 °F (at 7:00 AM)
Average temperature yesterday: 86 °F

Past Weeks' High & Low Weather Summary

 TemperatureHumidityPressure
High91 °F (Jul 17, 11:00 AM)89% (Jul 27, 3:00 AM)30.04 "Hg (Jul 27, 3:00 AM)
Low79 °F (Jul 14, 1:00 AM)55% (Jul 14, 1:00 PM)29.83 "Hg (Jul 26, 3:00 PM)
Average85 °F71%29.96 "Hg
* Reported Jul 12 7:00 PM — Jul 27 7:00 PM, May Pen, Weather by CustomWeather, © 2015

Note: Actual official high and low records may vary slightly from our data, if they occured in-between our weather recording intervals... More about our weather records

Advertising

May Pen weather history for previous 24 hours

 ConditionsComfort  
Time TempWeatherWind HumidityBarometerVisibility
7:00 PM
Mon, Jul 27
88 °FPassing clouds.23 mph55%29.92 "HgN/A
6:00 PM88 °FPassing clouds.26 mph62%29.89 "HgN/A
5:00 PM90 °FPassing clouds.26 mph59%29.89 "HgN/A
4:00 PM88 °FPassing clouds.26 mph66%29.89 "HgN/A
3:00 PM90 °FPassing clouds.26 mph63%29.89 "HgN/A
2:00 PM90 °FPassing clouds.29 mph63%29.92 "HgN/A
1:00 PM88 °FPassing clouds.29 mph70%29.95 "HgN/A
12:00 PM91 °FPassing clouds.26 mph56%29.95 "HgN/A
11:00 AM90 °FPassing clouds.23 mph63%29.95 "HgN/A
10:00 AM88 °FPassing clouds.20 mph66%29.98 "HgN/A
9:00 AM88 °FPassing clouds.22 mph70%29.95 "HgN/A
8:00 AM86 °FScattered clouds.21 mph75%29.95 "HgN/A
7:00 AM84 °FScattered clouds.17 mph84%29.95 "HgN/A
6:00 AM81 °FScattered clouds.9 mph79%29.95 "HgN/A
5:00 AM81 °FThundershowers. Passing clouds.5 mph84%29.92 "HgN/A
4:00 AM81 °FThundershowers. Passing clouds.10 mph84%29.92 "HgN/A
3:00 AM81 °FPassing clouds.9 mph89%29.92 "HgN/A
2:00 AM84 °FPassing clouds.10 mph74%29.92 "HgN/A
1:00 AM84 °FPassing clouds.8 mph70%29.95 "HgN/A
12:00 AM84 °FThundershowers. Passing clouds.18 mph74%29.95 "HgN/A
11:00 PM
Sun, Jul 26
86 °FThundershowers. Passing clouds.16 mph70%29.98 "HgN/A
10:00 PM84 °FPassing clouds.20 mph74%29.95 "HgN/A
9:00 PM86 °FPassing clouds.22 mph66%29.95 "HgN/A
8:00 PM86 °FPassing clouds.21 mph66%29.92 "HgN/A
Weather by CustomWeather, © 2015

See weather overviewHow to use our weather pages